Wind_Speed
16 15 15 13 10 6 9 2 3 8 17 7 4 10 9 6 19 12 14 19 23 23 22 22 14 9 12 16 16 27 33 15 25 36 31 27 35 27 31 17 7 17 18 16
18 18 17 16 15 13 7 2 3 4 14 6 11 8 10 15 19 19 18 21 22 23 23 14 18 15 6 7 7 9 11 6 23 29 28 34 29 30 28 28 15 15 13 18
15 17 16 15 16 17 13 3 3 2 3 10 13 13 15 14 12 17 20 21 20 21 21 17 12 21 15 8 15 21 5 6 13 25 31 27 35 34 34 29 22 24 24 28
13 14 15 15 14 14 16 4 6 7 5 10 17 19 12 14 17 17 17 14 20 20 19 17 19 24 27 26 22 11 6 10 17 19 27 33 35 37 31 31 29 27 32 34
9 10 14 14 14 15 17 4 4 8 12 15 18 19 18 23 21 17 17 17 18 19 18 20 18 22 20 21 14 5 3 8 14 22 20 26 37 34 34 35 34 34 36 33
8 9 11 14 15 18 9 11 16 7 9 16 15 15 19 20 22 21 22 22 21 20 20 19 19 19 21 19 15 13 6 4 7 20 18 17 15 33 32 29 29 30 31 34
5 7 9 12 16 21 18 7 9 4 12 14 17 22 22 24 23 22 22 19 18 22 18 17 18 20 22 22 21 18 16 13 5 13 17 14 12 22 32 33 31 36 32 33
8 7 4 6 12 15 23 21 11 5 11 16 20 23 23 24 23 24 24 25 23 17 11 6 10 12 9 13 23 24 20 14 9 8 14 22 27 24 29 27 34 34 33 34
10 8 8 9 9 10 15 21 24 8 7 17 23 21 23 19 18 19 25 22 15 14 4 8 17 17 18 13 6 21 23 16 8 8 16 10 18 20 25 24 21 31 35 30
14 14 14 14 15 16 15 18 20 12 6 11 19 15 15 19 19 15 18 14 14 17 9 13 16 20 21 23 26 12 13 17 18 16 11 12 31 30 35 21 12 22 26 29
18 19 20 19 18 17 15 19 21 19 6 11 21 23 19 20 18 16 17 10 13 6 12 9 11 9 15 19 27 25 18 11 12 17 16 17 10 21 25 11 16 8 9 12
22 22 23 23 22 20 17 21 23 25 11 6 15 31 38 37 31 17 15 17 13 11 9 9 7 10 11 19 18 22 23 15 10 8 6 5 11 12 20 17 11 7 9 12
23 24 24 25 25 23 20 26 26 11 6 11 15 17 35 38 41 39 15 6 18 12 10 8 8 10 8 13 17 22 23 19 10 10 13 14 16 12 15 19 16 10 10 10
25 25 26 26 26 25 24 23 24 18 3 6 13 23 22 23 28 35 34 22 17 14 11 8 5 7 8 8 3 7 12 12 15 17 17 14 17 13 17 16 15 9 10 11
29 28 27 27 27 25 25 24 25 22 5 4 6 17 29 27 18 21 23 15 12 6 3 5 6 11 9 11 12 12 13 15 11 9 11 12 8 9 15 17 15 6 3 9
32 32 31 30 28 24 14 3 9 17 13 3 4 3 4 4 10 12 13 11 7 5 5 4 9 20 6 7 12 17 16 13 16 15 9 9 7 9 16 17 14 8 4 4
31 34 34 35 32 21 8 3 2 17 11 2 4 4 3 2 2 1 2 8 2 3 3 4 8 8 4 6 15 20 13 5 11 12 6 15 13 7 11 11 8 5 5 7
31 33 35 36 20 7 12 26 15 16 3 2 4 4 4 1 1 1 1 3 3 4 3 2 8 7 6 7 15 17 19 15 9 11 12 13 11 3 7 7 7 11 9 11
32 32 30 6 5 4 2 3 7 15 7 3 3 4 3 3 1 1 1 2 4 4 4 6 5 6 8 11 16 17 18 11 11 14 13 11 8 8 7 9 11 12 13 13
22 14 5 2 0 11 13 4 5 5 5 4 4 3 5 3 3 3 3 3 3 4 7 5 5 11 19 18 9 9 9 12 13 14 11 9 9 10 11 13 11 12 14 14
5 2 2 10 18 6 4 4 5 5 4 4 3 3 5 1 4 2 2 2 3 3 5 5 4 5 8 3 3 6 9 9 9 8 7 8 7 7 9 12 10 13 16 15
13 16 23 9 4 4 5 4 4 6 3 3 3 1 2 1 1 3 3 3 2 3 6 3 3 3 2 3 2 3 5 5 6 2 1 6 9 11 12 12 12 13 11 14
12 4 4 4 4 4 6 7 4 3 3 3 1 2 2 2 3 3 2 3 2 2 2 3 2 4 4 5 2 3 4 7 8 9 10 10 10 9 12 12 9 13 13 15
4 6 6 5 6 6 6 7 5 2 3 4 3 2 2 2 2 2 3 2 3 3 3 1 3 7 7 3 3 7 10 12 13 13 12 12 12 12 10 11 12 13 11 15
4 5 6 8 7 2 2 1 2 4 4 4 3 4 3 3 3 3 3 3 4 3 2 3 3 8 6 6 7 9 9 7 10 10 9 9 9 11 12 15 16 18 17 15
5 7 8 4 4 5 4 5 6 5 4 4 4 3 2 4 3 4 5 3 3 2 3 2 1 7 7 7 6 7 8 9 9 9 10 10 10 11 12 15 15 15 14 13
6 5 3 7 6 4 6 7 7 5 5 6 3 3 6 1 3 3 3 3 3 3 2 1 1 5 7 8 8 7 9 10 10 10 9 10 13 14 11 10 11 12 14 15
Wind_Direction
253 254 254 253 253 215 193 202 231 178 158 190 212 235 241 266 275 270 256 263 274 267 272 282 294 293 319 15 333 246 231 237 243 245 254 240 220 219 217 226 226 229 233 244
247 246 247 243 234 204 183 218 249 184 199 226 223 242 256 264 263 259 259 258 256 267 273 282 270 271 228 357 41 22 6 302 241 251 241 255 250 227 220 219 207 217 216 233
248 243 246 244 231 220 207 180 224 162 232 245 253 246 237 237 253 259 262 261 264 270 277 274 266 276 280 259 274 301 266 253 275 241 228 227 236 235 221 229 219 228 227 245
246 245 243 240 231 217 196 214 233 200 203 231 242 250 253 251 244 254 264 261 251 253 259 263 265 274 275 273 269 266 216 269 295 311 278 257 233 231 229 241 226 223 236 235
256 253 242 238 234 211 205 199 217 244 249 247 225 234 242 247 254 250 252 263 258 260 261 261 269 271 281 286 290 184 192 269 306 297 294 258 253 240 229 217 231 233 235 240
271 265 255 240 232 200 210 235 251 258 260 252 256 244 238 244 253 262 259 260 264 265 273 284 293 284 280 271 268 263 213 257 276 278 290 310 270 246 233 240 253 239 232 238
327 284 261 251 242 221 223 199 239 239 253 255 256 260 261 262 260 259 258 262 266 266 283 305 287 279 278 272 267 249 238 236 253 292 305 271 255 248 242 254 242 230 246 255
19 7 340 278 258 244 233 236 226 234 249 252 265 268 270 270 268 262 259 258 259 272 295 265 274 264 263 247 244 242 232 224 237 248 283 292 278 278 225 237 245 244 252 257
335 328 314 302 288 266 253 251 242 244 259 241 259 266 265 265 264 268 262 265 270 266 243 241 247 254 264 260 253 228 219 222 204 216 246 283 290 267 253 234 244 247 242 247
312 317 310 308 304 284 268 260 247 239 253 254 261 260 257 258 260 261 267 263 239 226 229 239 243 252 252 253 251 238 199 207 209 224 235 261 264 268 280 231 229 254 236 243
309 306 306 305 303 301 278 268 253 237 260 259 254 251 247 255 249 252 258 255 219 215 221 235 236 244 241 249 248 255 219 194 204 219 223 232 333 299 244 293 227 301 323 259
307 304 303 303 302 301 288 268 260 248 248 264 264 255 254 256 253 252 245 239 252 218 213 218 236 241 248 243 251 250 251 224 232 221 210 309 321 295 315 313 313 329 327 321
306 304 303 303 303 299 284 274 271 244 254 265 246 255 256 248 248 249 247 236 222 222 251 249 246 248 248 242 248 249 247 247 236 240 233 230 251 259 283 286 283 290 300 317
308 306 304 304 303 302 294 275 266 236 259 266 279 263 237 244 236 239 238 241 239 242 227 239 239 250 242 257 271 303 283 242 242 247 255 256 241 222 241 263 269 267 286 306
306 306 304 304 305 304 298 276 262 238 212 288 297 301 281 249 239 247 236 219 214 211 223 222 219 240 259 255 271 257 250 259 234 241 240 228 291 234 228 228 246 268 262 268
305 305 306 306 308 308 295 289 231 222 181 264 278 274 238 219 247 250 234 211 195 204 200 236 238 255 278 263 261 261 254 264 285 262 315 311 271 232 222 224 223 201 192 135
304 305 306 310 307 289 228 232 68 182 189 258 272 253 171 234 278 297 152 177 155 183 202 231 260 238 241 273 264 275 278 242 243 260 209 250 243 244 249 243 194 217 170 125
306 304 306 310 300 259 245 245 225 176 212 201 263 266 198 165 160 197 268 134 150 192 218 213 242 272 244 255 265 265 278 261 244 257 246 248 295 249 221 216 183 171 163 145
309 308 308 282 231 220 100 137 178 209 222 254 251 278 322 159 149 135 201 192 190 167 215 209 203 218 226 245 269 275 260 254 266 264 258 244 245 226 207 191 172 156 140 149
315 310 230 246 201 315 307 197 189 200 200 219 257 282 272 286 212 192 207 198 224 207 201 131 226 240 248 245 259 283 281 269 265 254 242 237 203 192 187 181 159 143 139 141
297 295 282 311 313 280 216 229 223 202 233 199 227 259 286 268 266 280 204 251 198 242 161 214 224 247 232 105 290 307 303 298 280 261 246 229 182 180 159 117 109 123 130 128
304 292 297 286 254 232 223 232 228 229 263 182 258 246 280 221 232 267 192 271 266 276 155 239 256 82 66 110 69 331 342 358 345 320 155 133 120 124 121 133 112 93 96 102
281 204 236 222 220 236 223 204 225 234 193 209 226 304 273 241 204 265 262 265 268 292 220 241 46 94 91 98 82 104 110 83 69 82 87 100 101 100 99 93 93 110 95 96
239 224 228 230 203 235 216 237 277 50 223 223 229 230 222 247 271 257 259 261 262 254 239 206 72 95 80 72 71 102 89 100 84 71 68 76 83 80 81 95 108 112 96 87
247 229 236 226 235 279 275 233 214 207 232 255 228 225 238 221 218 240 268 247 252 243 8 54 54 95 91 66 68 88 86 81 93 97 96 99 108 104 88 80 89 91 94 94
230 237 237 246 266 211 215 213 228 210 208 248 246 260 196 243 234 225 224 246 260 54 42 57 162 118 104 95 89 81 89 97 103 105 102 95 91 93 94 88 86 90 98 102
230 219 260 256 244 258 205 209 212 201 210 232 236 223 221 290 248 241 209 265 27 68 112 90 220 148 136 129 125 126 118 114 112 108 104 102 105 109 103 99 103 106 108 108
Height
749 751 753 755 757 759 760 761 758 754 758 761 758 752 748 744 735 729 730 727 722 722 718 723 725 719 716 722 709 678 666 673 670 658 642 631 643 647 658 688 708 694 682 668
744 746 748 751 753 756 758 759 757 758 758 752 749 748 745 739 735 730 728 725 723 718 717 728 720 707 703 710 729 734 727 701 676 667 655 638 635 633 633 649 674 689 691 675
740 742 744 746 749 753 757 759 754 757 757 746 741 744 743 744 734 729 724 721 719 717 717 718 728 715 706 708 714 724 737 712 683 644 634 632 631 630 638 629 660 661 658 654
737 739 741 743 746 749 755 753 748 740 746 748 742 737 734 733 732 726 721 717 713 714 719 718 719 706 695 695 698 713 725 711 698 684 655 629 619 620 621 629 625 645 643 639
735 736 737 739 742 746 750 748 743 733 729 724 728 727 728 726 719 719 722 716 709 707 709 704 705 697 692 689 685 707 717 712 701 693 656 641 625 604 601 612 619 616 617 621
733 734 734 736 738 742 740 739 735 735 724 720 717 716 716 714 712 709 705 705 704 703 701 699 700 695 691 693 699 699 710 706 702 685 657 655 641 619 597 611 605 606 608 601
731 731 731 732 734 736 736 736 737 738 724 717 712 708 703 701 700 703 702 701 703 699 699 701 697 689 681 677 675 681 692 696 694 677 666 661 631 606 602 601 594 600 599 592
731 730 729 729 729 730 731 731 731 727 719 711 705 702 698 693 690 690 691 690 691 693 701 706 702 688 689 677 673 665 666 683 681 689 668 640 621 606 595 597 590 584 588 581
730 729 728 727 726 726 726 725 724 722 715 698 701 698 695 692 693 692 686 686 690 696 703 700 690 679 663 655 654 640 646 651 664 673 674 657 607 582 577 577 595 577 569 573
728 726 724 723 722 721 721 717 718 715 706 699 700 694 692 689 690 686 679 677 684 687 693 684 676 661 654 645 639 641 656 662 667 663 663 631 592 599 580 582 586 561 564 564
724 722 720 718 716 715 715 708 709 709 700 690 691 687 685 680 680 679 665 674 674 679 678 672 662 657 640 634 624 620 624 642 643 647 643 631 598 584 570 560 558 560 560 554
718 715 713 712 710 709 709 701 698 698 693 680 677 671 668 669 667 669 665 664 661 657 654 653 644 643 630 624 619 609 606 598 601 605 600 598 596 603 593 587 573 571 569 568
712 709 707 704 703 701 701 695 691 691 686 672 666 657 654 655 654 655 655 652 652 652 648 641 635 637 619 615 602 600 592 584 589 597 583 592 592 592 594 592 587 578 573 569
705 702 699 697 694 693 691 686 682 683 681 664 638 636 636 638 639 641 641 642 646 643 646 646 637 632 615 610 617 613 592 582 586 580 578 583 585 572 583 590 583 575 571 567
696 694 691 688 686 684 680 675 670 672 675 656 644 635 627 626 629 630 629 634 638 641 642 636 624 618 618 605 603 601 592 584 585 578 572 570 558 568 579 581 576 572 572 571
688 683 681 678 677 676 674 666 660 661 664 663 641 621 621 624 625 625 623 625 631 635 635 626 615 610 613 599 585 574 572 573 576 568 566 557 569 571 572 571 569 571 570 568
680 675 671 667 665 666 665 657 653 656 660 658 638 616 619 622 621 617 617 622 626 629 629 624 616 612 612 603 586 576 569 578 582 573 579 581 571 569 565 566 567 572 572 573
672 666 661 657 653 652 651 648 650 653 655 656 635 609 611 619 616 617 619 620 624 625 620 619 614 612 607 598 575 569 567 563 569 568 568 568 564 565 566 568 571 570 572 574
662 656 651 650 648 643 641 643 646 648 650 640 627 608 605 613 615 616 619 616 611 615 611 606 608 600 594 574 568 564 560 563 564 563 561 562 563 565 567 570 572 575 574 579
654 651 643 647 641 640 641 639 640 641 638 636 619 607 605 610 606 606 609 609 599 596 591 605 598 579 569 565 570 569 569 567 565 563 560 563 563 566 568 570 575 576 580 586
651 646 646 641 640 637 629 631 624 616 616 616 610 609 607 611 608 599 600 593 590 581 581 583 571 559 555 567 576 578 574 567 562 562 561 562 563 568 571 578 585 586 589 592
658 657 651 646 634 626 622 615 605 601 598 604 603 608 608 609 613 607 601 594 591 579 576 579 560 575 572 581 591 590 586 580 576 573 572 572 574 578 587 593 593 598 606 609
650 650 645 629 623 628 617 611 599 596 597 600 601 606 607 606 607 606 598 596 586 576 580 563 562 573 581 589 591 590 588 587 586 584 585 586 589 592 597 602 608 613 613 616
640 628 628 617 611 603 587 586 586 590 595 597 596 600 604 603 604 601 600 589 581 583 575 564 569 579 588 592 587 586 589 589 591 595 597 600 603 606 610 612 614 616 618 622
631 617 614 596 588 588 589 592 596 597 595 594 593 594 593 595 599 595 592 589 583 565 568 571 582 585 592 592 593 595 599 599 599 603 606 609 611 612 614 616 618 619 623 627
624 608 595 589 593 595 604 601 597 592 596 596 593 588 591 591 586 585 585 578 571 568 575 591 587 588 594 598 599 599 601 603 605 608 610 612 613 615 618 621 623 626 629 631
603 592 593 590 589 593 594 593 591 588 593 591 584 589 584 580 580 575 570 571 573 584 593 594 593 593 594 599 603 605 605 607 610 611 614 617 619 621 622 626 630 632 635 637